EW3212 Weather Reports


Display with metric or nautical units.
time (UTC)temp
F
wind
direction
speed
MPH
gust
MPH
rain 1hr
in
rain 24hr
in
rain mn
in
humidity
%
barometer
mb
20260508204424 66 261 0.0 0.0 0.00 0.00 0.00 41 1008.9
20260508203444 67 218 0.0 0.0 0.00 0.00 0.00 39 1009.0
20260508202454 67 275 0.0 0.0 0.00 0.00 0.00 39 1009.2
20260508201428 67 213 0.0 0.0 0.00 0.00 0.00 38 1009.3
20260508200414 67 225 0.0 0.0 0.00 0.00 0.00 38 1009.4
20260508194257 69 259 0.0 10.0 0.00 0.00 0.00 35 1009.4
20260508193224 68 227 0.0 6.0 0.00 0.00 0.00 35 1009.6
20260508191142 69 246 0.0 8.0 0.00 0.00 0.00 38 1009.9
20260508190128 69 224 0.0 1.0 0.00 0.00 0.00 39 1010.0
20260508185140 69 265 0.0 2.0 0.00 0.00 0.00 38 1010.3
20260508184118 68 226 0.0 0.0 0.00 0.00 0.00 39 1010.2
20260508183130 67 269 0.0 0.0 0.00 0.00 0.00 42 1010.4
20260508182113 66 256 0.0 0.0 0.00 0.00 0.00 41 1010.5
20260508181117 67 231 0.0 0.0 0.00 0.00 0.00 42 1010.7
20260508180055 67 243 0.0 0.0 0.00 0.00 0.00 38 1010.8
20260508175105 68 244 0.0 0.0 0.00 0.00 0.00 38 1010.9
20260508174048 70 216 0.0 0.0 0.00 0.00 0.00 38 1011.0
20260508173015 69 216 0.0 0.0 0.00 0.00 0.00 40 1011.2
20260508172030 68 250 1.0 2.0 0.00 0.00 0.00 41 1011.2
20260508171003 68 223 0.0 4.0 0.00 0.00 0.00 40 1011.6
20260508165951 67 245 0.0 6.0 0.00 0.00 0.00 42 1011.8
20260508164919 66 267 0.0 7.0 0.00 0.00 0.00 42 1012.0
20260508163931 65 284 0.0 0.0 0.00 0.00 0.00 45 1012.2
20260508162936 65 236 0.0 0.0 0.00 0.00 0.00 44 1012.3
20260508161959 65 192 0.0 0.0 0.00 0.00 0.00 43 1012.3
20260508161004 66 225 0.0 0.0 0.00 0.00 0.00 43 1012.4
20260508160023 66 211 0.0 0.0 0.00 0.00 0.00 43 1012.6
20260508155032 65 229 0.0 1.0 0.00 0.00 0.00 45 1012.6
20260508144440 63 248 0.0 0.0 0.00 0.00 0.00 45 1013.1
20260508143434 63 206 0.0 0.0 0.00 0.00 0.00 46 1013.3
20260508142409 62 200 0.0 0.0 0.00 0.00 0.00 49 1013.3
20260508141405 61 267 0.0 0.0 0.00 0.00 0.00 50 1013.4
20260508134151 58 267 0.0 3.0 0.00 0.00 0.00 50 1013.6
20260508133124 57 301 0.0 3.0 0.00 0.00 0.00 52 1013.7
20260508132140 56 271 0.0 0.0 0.00 0.00 0.00 52 1013.5
20260508131137 56 277 0.0 0.0 0.00 0.00 0.00 51 1013.5
20260508130135 56 296 0.0 0.0 0.00 0.00 0.00 51 1013.5
20260508125140 55 270 0.0 0.0 0.00 0.00 0.00 53 1013.6
20260508123025 55 270 0.0 3.0 0.00 0.00 0.00 55 1013.6
20260508122016 54 261 0.0 0.0 0.00 0.00 0.00 57 1013.5
20260508121037 52 267 0.0 0.0 0.00 0.00 0.00 60 1013.4
20260508120033 51 267 0.0 0.0 0.00 0.00 0.00 61 1013.6
20260508113915 48 277 0.0 0.0 0.00 0.00 0.00 68 1013.2
20260508112908 47 277 0.0 0.0 0.00 0.00 0.00 69 1013.1
20260508110800 46 277 0.0 0.0 0.00 0.00 0.00 69 1012.9
20260508105819 47 277 0.0 0.0 0.00 0.00 0.00 69 1013.0
20260508102512 48 277 0.0 0.0 0.00 0.00 0.00 63 1012.8
20260508101450 48 277 0.0 0.0 0.00 0.00 0.00 62 1012.8
20260508095305 49 277 0.0 0.0 0.00 0.00 0.00 60 1012.8
20260508093101 48 269 0.0 0.0 0.00 0.00 0.00 60 1013.0
20260508090933 48 273 0.0 0.0 0.00 0.00 0.00 60 1012.8
20260508085913 48 273 0.0 0.0 0.00 0.00 0.00 60 1012.9
20260508084844 48 253 0.0 0.0 0.00 0.00 0.00 60 1013.0
20260508083831 48 253 0.0 0.0 0.00 0.00 0.00 60 1012.9
20260508082802 48 257 0.0 0.0 0.00 0.00 0.00 61 1013.0
20260508081802 47 234 0.0 0.0 0.00 0.00 0.00 61 1013.1
20260508080743 48 234 0.0 0.0 0.00 0.00 0.00 61 1012.9
20260508075754 48 234 0.0 0.0 0.00 0.00 0.00 61 1013.0
20260508072431 50 222 0.0 0.0 0.00 0.00 0.00 55 1013.1
20260508071430 50 222 0.0 0.0 0.00 0.00 0.00 55 1013.2
20260508070409 50 221 0.0 0.0 0.00 0.00 0.00 54 1013.2
20260508065353 50 278 0.0 0.0 0.00 0.00 0.00 54 1013.3
20260508064343 50 265 0.0 0.0 0.00 0.00 0.00 54 1013.3
20260508063340 50 265 0.0 0.0 0.00 0.00 0.00 54 1013.3
20260508062322 50 265 0.0 0.0 0.00 0.00 0.00 54 1013.3
20260508061321 50 269 0.0 0.0 0.00 0.00 0.00 54 1013.3
20260508060328 50 270 0.0 0.0 0.00 0.00 0.00 55 1013.3
20260508055315 50 239 0.0 0.0 0.00 0.00 0.00 57 1013.4
20260508054257 50 263 0.0 0.0 0.00 0.00 0.00 58 1013.4
20260508053308 50 263 0.0 0.0 0.00 0.00 0.00 58 1013.4
20260508052237 50 263 0.0 0.0 0.00 0.00 0.00 59 1013.4
20260508051224 50 263 0.0 0.0 0.00 0.00 0.00 59 1013.5
20260508050206 50 263 0.0 0.0 0.00 0.00 0.00 61 1013.5
20260508045213 50 263 0.0 0.0 0.00 0.00 0.00 62 1013.4
20260508044229 50 263 0.0 0.0 0.00 0.00 0.00 61 1013.4
20260508043218 50 263 0.0 0.0 0.00 0.00 0.00 62 1013.4
20260508042210 50 263 0.0 0.0 0.00 0.00 0.00 62 1013.4
20260508041218 50 263 0.0 0.0 0.00 0.00 0.00 60 1013.4
20260508040208 50 263 0.0 0.0 0.00 0.00 0.00 58 1013.4
20260508034129 50 263 0.0 0.0 0.00 0.00 0.00 61 1013.4
20260508033058 49 263 0.0 0.0 0.00 0.00 0.00 60 1013.5
20260508032059 49 263 0.0 0.0 0.00 0.00 0.00 61 1013.4
20260508031111 49 263 0.0 0.0 0.00 0.00 0.00 63 1013.4
20260508030118 49 263 0.0 0.0 0.00 0.00 0.00 65 1013.4
20260508025141 49 263 0.0 0.0 0.00 0.00 0.00 64 1013.3
20260508023003 48 263 0.0 0.0 0.00 0.00 0.00 65 1013.3
20260508020846 49 263 0.0 0.0 0.00 0.00 0.00 66 1013.3
20260508015825 49 263 0.0 0.0 0.00 0.00 0.00 68 1013.3
20260508014820 49 263 0.0 0.0 0.00 0.00 0.00 68 1013.3
20260508012637 50 263 0.0 0.0 0.00 0.00 0.00 65 1013.3
20260508010640 51 263 0.0 0.0 0.00 0.00 0.00 61 1013.3
20260508005611 53 263 0.0 0.0 0.00 0.00 0.00 57 1013.3
20260508003446 55 263 0.0 0.0 0.00 0.00 0.00 51 1013.2
20260508002432 57 263 0.0 0.0 0.00 0.00 0.00 44 1013.1
20260508001407 58 263 0.0 0.0 0.00 0.00 0.00 40 1013.1
20260508000419 58 263 0.0 0.0 0.00 0.00 0.00 37 1013.0
20260507235429 59 263 0.0 0.0 0.00 0.00 0.00 35 1012.9
20260507233341 60 273 0.0 0.0 0.00 0.00 0.00 34 1012.9
20260507232332 61 281 0.0 0.0 0.00 0.00 0.00 33 1012.9
20260507230245 61 271 0.0 0.0 0.00 0.00 0.00 33 1013.0
20260507225228 62 270 0.0 0.0 0.00 0.00 0.00 31 1012.9
20260507223120 62 275 0.0 0.0 0.00 0.00 0.00 32 1013.0
20260507222116 62 223 0.0 5.0 0.00 0.00 0.00 32 1013.0
20260507221045 61 254 0.0 0.0 0.00 0.00 0.00 33 1013.1
20260507220058 61 246 0.0 0.0 0.00 0.00 0.00 32 1013.2
20260507215117 62 229 0.0 0.0 0.00 0.00 0.00 31 1013.3
20260507213042 63 289 0.0 5.0 0.00 0.00 0.00 34 1013.2
20260507212040 63 298 0.0 3.0 0.00 0.00 0.00 33 1013.2
20260507211049 63 242 0.0 0.0 0.00 0.00 0.00 35 1013.2
20260507210055 63 250 0.0 0.0 0.00 0.00 0.00 33 1013.2